Home   Weather   Caledon   Past weeks

Flag for Canada Past Weather in Caledon, Ontario, Canada — Yesterday and Last 2 Weeks

Now
50 °F

Light rain. Low clouds.


Feels Like: 44 °F
Forecast: 40 / 55 °F
Wind: 17 mph from South

Location: Borden

Current Time: Apr 25, 2017 at 3:03:58 pm

Latest Report: Apr 25, 2017 at 2:00 pm


Visibility: 9 mi

Pressure: 29.96 "Hg

Humidity: 94%

Dew Point: 48 °F

Location of CaledonLocation

Past Weather in Caledon — Graph

°F

Caledon Temperature Yesterday

Maximum temperature yesterday: 63 °F (at 3:00 pm)
Minimum temperature yesterday: 30 °F (at 7:00 am)
Average temperature yesterday: 48 °F

High & Low Weather Summary for the Past Weeks

 TemperatureHumidityPressure
High75 °F (Apr 10, 2:00 pm)100% (Apr 11, 12:37 am)30.52 "Hg (Apr 11, 12:37 am)
Low19 °F (Apr 18, 6:00 am)22% (Apr 14, 6:00 pm)29.67 "Hg (Apr 16, 11:00 am)
Average46 °F77%30.09 "Hg
* Reported Apr 10 1:00 pm — Apr 25 1:23 pm, Caledon, Weather by CustomWeather, © 2017

Note: Actual official high and low records may vary slightly from our data, if they occured in-between our weather recording intervals... More about our weather records

Advertising

Caledon Weather History for the Previous 24 Hours

Scroll right to see more
 ConditionsComfort  
Time TempWeatherWind HumidityBarometerVisibility
1:23 pm
Tue, Apr 25
50 °FLow clouds.14 mph94%29.96 "Hg9 mi
1:00 pm50 °FLight rain. Low clouds.13 mph94%29.98 "Hg9 mi
12:09 pm48 °FLight rain. Low clouds.10 mph94%29.99 "Hg9 mi
11:19 am48 °FLight rain. Low clouds.12 mph94%30.00 "Hg9 mi
11:00 am46 °FLight rain. Overcast.14 mph93%30.02 "Hg9 mi
10:38 am46 °FLight rain. Mostly cloudy.9 mph93%30.01 "Hg9 mi
10:00 am45 °FLight rain. Overcast.8 mph87%30.03 "Hg9 mi
9:32 am46 °FLight rain. Overcast.8 mph82%30.02 "Hg9 mi
9:18 am46 °FOvercast.7 mph76%30.02 "Hg9 mi
9:00 am45 °FLight rain. Overcast.8 mph81%30.04 "Hg9 mi
8:34 am46 °FLight rain. Overcast.7 mph71%30.03 "Hg9 mi
7:00 am32 °FSunny.2 mph93%30.03 "Hg9 mi
6:00 am32 °FClear.2 mph93%30.03 "Hg9 mi
5:00 am32 °FClear.No wind100%30.03 "Hg9 mi
4:00 am36 °FClear.No wind93%30.03 "Hg9 mi
3:00 am37 °FClear.No wind87%30.05 "Hg9 mi
2:00 am41 °FClear.2 mph81%30.07 "Hg9 mi
1:00 am45 °FClear.6 mph71%30.07 "Hg9 mi
12:00 am46 °FClear.6 mph71%30.08 "Hg9 mi
11:00 pm
Mon, Apr 24
46 °FClear.3 mph66%30.08 "Hg9 mi
10:00 pm50 °FClear.5 mph67%30.08 "Hg9 mi
9:00 pm52 °FClear.5 mph62%30.07 "Hg9 mi
8:00 pm54 °FSunny.6 mph58%30.07 "Hg9 mi
7:00 pm59 °FPassing clouds.9 mph48%30.08 "Hg9 mi
6:00 pm61 °FSunny.10 mph45%30.09 "Hg9 mi
5:00 pm63 °FPassing clouds.7 mph45%30.10 "Hg9 mi
4:00 pm63 °FPassing clouds.13 mph45%30.11 "Hg9 mi
3:00 pm63 °FPassing clouds.7 mph49%30.12 "Hg9 mi
Weather by CustomWeather, © 2017

See weather overviewHow to use our weather pages